Weather in Wrexham

United Kingdom     53°02′50″N   2°59′23″W
temp.,
°C
wind,
m/s
gust,
m/s
humid.,
%
clouds,
%
prec.,
mm/h
press.,
hPa
HPBL,
m
16 may, sun
sun1601:00+5ssw349551 1.0 99857
04:00+4ssw33965 0.0 99747
07:00+6ssw239582 0.0 997105
10:00+11ssw457688 0.1 997895
13:00+12s347487 0.4 9961147
16:00+13s227698 1.5 995800
19:00+11n349098 4.4 996290
22:00+7nw349476 0.5 99888
17 may, mon
mon1701:00+7wnw369496 0.5 999148
04:00+5w229390 0.0 100121
07:00+7wnw299295 0.0 1002316
10:00+11nw577661 0.0 1004984
13:00+13nw676532 0.6 10051427
16:00+13nnw786111 0.3 10061262
19:00+11nnw587097 0.3 1007896
22:00+6w338621 0.0 100948
18 may, tue
tue1801:00+4wsw349254 0.0 101072
04:00+5wsw399183 0.0 1011210
07:00+7w398439 0.0 1013532
10:00+11w575829 0.0 10141595
13:00+12w685378 0.1 10142101
16:00+13w685273 0.0 10142145
19:00+11w59745 0.4 1015831
22:00+6wsw388474 0.1 1017155
19 may, wed
wed1901:00+6w411885 0.1 1017372
04:00+6w511875 0.0 1018439
07:00+8wnw5108042 0.0 1019759
10:00+11wnw687256 0.0 10201108
13:00+12wnw566683 0.4 10191481
16:00+12w6766100 0.4 10201362
19:00+11w4670100 0.5 1019500
22:00+7ssw3385100 0.0 101843
20 may, thu
thu2001:00+7ssw2490100 0.0 101683
04:00+6sse2388100 0.0 101370
07:00+5se71097100 3.3 1009815
10:00+4e71299100 9.4 1003814
13:00+6ne61298100 13.1 998799
16:00+5n61198100 3.2 998703
19:00+5nnw6897100 4.4 1002889
22:00+6nnw61097100 1.9 10061109